Alexandria, LA

5:52 PM CDT on September 19, 2017 (GMT -0500)
Alexandria International

Weather History for KAEX - July, 2013

Change the Weather History Date:

Sunday, July 7, 2013

  Actual Average Record
Temperature  
Mean Temperature 83 °F 82 °F  
Max Temperature 91 °F 92 °F 102 °F (1907)
Min Temperature 75 °F 73 °F 62 °F (1924)
Cooling Degree Days 18 17  
Month to date cooling degree days 99 119  
Year to date cooling degree days 973 1026  
Since 1 June cooling degree days 580 572  
Growing Degree Days 32 (Base 50)    
Moisture  
Dew Point 74 °F    
Average Humidity 75    
Maximum Humidity 94    
Minimum Humidity 56    
Precipitation  
Precipitation 0.21 in 0.15 in 1.73 in (1911)
Month to date precipitation 0.22 1.13  
Year to date precipitation 29.67 30.23  
Sea Level Pressure  
Sea Level Pressure 30.01 in    
Wind  
Wind Speed 6 mph (SE)    
Max Wind Speed 13 mph    
Max Gust Speed 20 mph    
Visibility 9 miles    
Events Rain    
T = Trace of Precipitation, MM = Missing Value Source: NWS Daily Summary

Daily Weather History Graph

Daily Weather History Graph

Search for Another Location

Airport or City:

Trip Planner

Search our weather history database for the weather conditions in past years. The results will help you decide how hot, cold, wet, or windy it might be!

Date:

Astronomy

Jul. 07, 2013 Rise Set
Actual Time 6:12 AM CDT 8:17 PM CDT
Civil Twilight 5:44 AM CDT 8:45 PM CDT
Nautical Twilight 5:10 AM CDT 9:19 PM CDT
Astronomical Twilight 4:34 AM CDT 9:55 PM CDT
Moon 5:44 AM CDT (7/7) 7:47 PM CDT (7/7)
Length of Visible Light 15h 01m
Length of Day
14h 05m
Waning Crescent, 0% of the Moon is Illuminated
Jul 7
Waning Crescent
Jul 8
New
Jul 15
First Quarter
Jul 22
Full
Jul 29
Last Quarter

Hourly Weather History & Observations

Time (CDT) Temp. Heat Index Dew Point Humidity Pressure Visibility Wind Dir Wind Speed Gust Speed Precip Events Conditions
12:53 AM 75.0 °F - 72.0 °F 90% 29.96 in 10.0 mi SSE 5.8 mph - N/A   Clear
1:53 AM 75.9 °F - 73.0 °F 91% 29.96 in 10.0 mi ESE 5.8 mph - N/A   Clear
2:53 AM 75.9 °F - 73.0 °F 91% 29.96 in 10.0 mi ESE 6.9 mph - N/A   Clear
3:53 AM 75.9 °F - 73.9 °F 94% 29.97 in 10.0 mi ESE 5.8 mph - N/A   Clear
4:24 AM 75.2 °F - 73.4 °F 94% 29.97 in 10.0 mi East 6.9 mph - N/A   Partly Cloudy
4:53 AM 75.9 °F - 73.0 °F 91% 29.98 in 10.0 mi ESE 5.8 mph - N/A   Clear
5:29 AM 75.2 °F - 73.4 °F 94% 29.98 in 10.0 mi ESE 5.8 mph - N/A   Scattered Clouds
5:38 AM 75.2 °F - 73.4 °F 94% 29.98 in 10.0 mi ESE 6.9 mph - N/A   Mostly Cloudy
5:53 AM 75.0 °F - 73.9 °F 96% 29.98 in 10.0 mi ESE 6.9 mph - N/A   Overcast
6:53 AM 75.9 °F - 73.0 °F 91% 29.99 in 8.0 mi ESE 6.9 mph - N/A   Overcast
7:53 AM 75.9 °F - 73.9 °F 94% 30.02 in 8.0 mi SE 9.2 mph - N/A   Overcast
8:53 AM 79.0 °F - 73.0 °F 82% 30.04 in 10.0 mi ESE 6.9 mph - N/A   Overcast
9:53 AM 81.0 °F 86.2 °F 73.9 °F 79% 30.04 in 10.0 mi ESE 3.5 mph - N/A   Mostly Cloudy
10:33 AM 82.4 °F 88.2 °F 73.4 °F 74% 30.03 in 10.0 mi Variable 3.5 mph - N/A   Mostly Cloudy
10:53 AM 82.9 °F 89.4 °F 73.9 °F 74% 30.04 in 10.0 mi ESE 4.6 mph - N/A   Mostly Cloudy
11:48 AM 84.2 °F 90.9 °F 73.4 °F 70% 30.02 in 10.0 mi South 4.6 mph - N/A   Mostly Cloudy
11:53 AM 86.0 °F 93.0 °F 73.0 °F 65% 30.03 in 10.0 mi SE 6.9 mph - N/A   Mostly Cloudy
12:53 PM 89.1 °F 98.0 °F 73.9 °F 61% 30.02 in 10.0 mi Variable 4.6 mph - N/A   Partly Cloudy
1:53 PM 89.1 °F 96.0 °F 72.0 °F 57% 30.00 in 10.0 mi Variable 4.6 mph - N/A   Partly Cloudy
2:53 PM 87.1 °F 94.5 °F 73.0 °F 63% 29.99 in 10.0 mi SSW 3.5 mph - N/A   Overcast
3:14 PM 82.4 °F 89.5 °F 75.2 °F 79% 29.99 in 1.5 mi SSW 9.2 mph - 0.17 in Rain Heavy Rain
3:25 PM 82.4 °F 89.5 °F 75.2 °F 79% 29.99 in 3.0 mi South 10.4 mph - 0.21 in Rain Light Rain
3:53 PM 82.0 °F 89.4 °F 75.9 °F 82% 30.00 in 10.0 mi South 6.9 mph - 0.21 in   Overcast
4:53 PM 82.9 °F 90.8 °F 75.9 °F 79% 30.01 in 10.0 mi South 9.2 mph - N/A   Mostly Cloudy
5:53 PM 82.0 °F 88.6 °F 75.0 °F 79% 30.01 in 10.0 mi SW 6.9 mph - N/A   Scattered Clouds
6:53 PM 81.0 °F 86.7 °F 75.0 °F 82% 30.02 in 10.0 mi South 3.5 mph - N/A   Mostly Cloudy
7:53 PM 79.0 °F - 73.9 °F 84% 30.03 in 10.0 mi SSW 3.5 mph - N/A   Clear
8:53 PM 78.1 °F - 73.9 °F 87% 30.04 in 10.0 mi Calm Calm - N/A   Clear
9:53 PM 78.1 °F - 73.9 °F 87% 30.05 in 10.0 mi ESE 5.8 mph - N/A   Clear
10:53 PM 75.9 °F - 73.9 °F 94% 30.06 in 10.0 mi SSE 5.8 mph - N/A   Clear
11:53 PM 75.9 °F - 73.9 °F 94% 30.06 in 10.0 mi SSE 4.6 mph - N/A   Clear